Weather History for KLDM - December, 2013

Change the Weather History Date:

Sunday, December 15, 2013

  Actual Average Record
Temperature  
Mean Temperature 19 °F -  
Max Temperature 24 °F 36 °F 56 °F (1975)
Min Temperature 14 °F 22 °F 0 °F (1989)
Degree Days  
Heating Degree Days 46    
Moisture  
Dew Point 12 °F    
Average Humidity 80    
Maximum Humidity 91    
Minimum Humidity 69    
Precipitation  
Precipitation 0.00 in - - ()
Sea Level Pressure  
Sea Level Pressure 29.88 in    
Wind  
Wind Speed 7 mph (WNW)    
Max Wind Speed 16 mph    
Max Gust Speed 26 mph    
Visibility 6 miles    
Events Snow    
Averages and records for this station are not official NWS values.
T = Trace of Precipitation, MM = Missing Value Source: NWS Daily Summary

Daily Weather History Graph

Daily Weather History Graph

Search for Another Location

Airport or City:

Trip Planner

Search our weather history database for the weather conditions in past years. The results will help you decide how hot, cold, wet, or windy it might be!

Date:

Astronomy

Dec. 15, 2013 Rise Set
Actual Time 8:13 AM EST 5:08 PM EST
Civil Twilight 7:40 AM EST 5:41 PM EST
Nautical Twilight 7:03 AM EST 6:17 PM EST
Astronomical Twilight 6:28 AM EST 6:53 PM EST
Moon 4:14 PM EST (12/15) 6:26 AM EST (12/15)
Length of Visible Light 10h 01m
Length of Day
8h 54m
Waxing Gibbous, 97% of the Moon is Illuminated
Dec 15
Waxing Gibbous
Dec 17
Full
Dec 25
Last Quarter
Jan 1
New
Jan 7
First Quarter

Hourly Weather History & Observations

Time (EST) Temp. Windchill Dew Point Humidity Pressure Visibility Wind Dir Wind Speed Gust Speed Precip Events Conditions
12:14 AM 18.1 °F - 15.4 °F 89% 29.89 in 7.0 mi Calm Calm - N/A Snow Light Snow
12:35 AM 18.1 °F - 15.4 °F 89% 29.88 in 5.0 mi Calm Calm - N/A Snow Light Snow
12:55 AM 17.4 °F - 14.7 °F 89% 29.86 in 4.0 mi Calm Calm - N/A Snow Light Snow
1:14 AM 18.1 °F - 15.4 °F 89% 29.85 in 5.0 mi Calm Calm - N/A Snow Light Snow
1:35 AM 19.4 °F - 16.7 °F 89% 29.84 in 5.0 mi Calm Calm - N/A Snow Light Snow
1:55 AM 19.4 °F 14.3 °F 16.7 °F 89% 29.84 in 5.0 mi SSE 3.5 mph - N/A Snow Light Snow
2:15 AM 19.4 °F - 16.7 °F 89% 29.83 in 2.5 mi Calm Calm - N/A Snow Light Snow
2:35 AM 19.4 °F - 16.7 °F 89% 29.82 in 2.0 mi Calm Calm - N/A Snow Light Snow
2:54 AM 19.4 °F - 17.2 °F 91% 29.82 in 1.8 mi Calm Calm - N/A Snow Light Snow
3:15 AM 19.4 °F 14.3 °F 17.2 °F 91% 29.82 in 3.0 mi ESE 3.5 mph - N/A Snow Light Snow
3:35 AM 19.6 °F 10.6 °F 17.4 °F 91% 29.82 in 2.5 mi WNW 6.9 mph - N/A Snow Light Snow
3:54 AM 24.4 °F 16.5 °F 21.6 °F 89% 29.81 in 2.5 mi WNW 6.9 mph - N/A Snow Light Snow
4:15 AM 24.4 °F 13.5 °F 20.7 °F 86% 29.80 in 5.0 mi WNW 11.5 mph 18.4 mph N/A Snow Light Snow
4:35 AM 23.2 °F 12.0 °F 19.4 °F 85% 29.81 in 5.0 mi WNW 11.5 mph 17.3 mph N/A Snow Light Snow
4:54 AM 22.8 °F 13.6 °F 18.7 °F 84% 29.80 in 4.0 mi WNW 8.1 mph 16.1 mph N/A Snow Light Snow
5:15 AM 22.5 °F 12.4 °F 18.3 °F 84% 29.80 in 4.0 mi WNW 9.2 mph 17.3 mph N/A Snow Light Snow
5:35 AM 21.9 °F 11.7 °F 17.6 °F 83% 29.80 in 1.5 mi WNW 9.2 mph 18.4 mph N/A Snow Light Snow
5:54 AM 21.9 °F 10.4 °F 17.4 °F 83% 29.80 in 4.0 mi WNW 11.5 mph - N/A Snow Light Snow
6:15 AM 21.9 °F 11.7 °F 17.6 °F 83% 29.79 in 3.0 mi WNW 9.2 mph - N/A Snow Light Snow
6:34 AM 20.7 °F 7.6 °F 16.2 °F 83% 29.80 in 2.5 mi WNW 13.8 mph 21.9 mph N/A Snow Light Snow
6:55 AM 19.8 °F 8.3 °F 14.5 °F 80% 29.81 in 4.0 mi WNW 10.4 mph 17.3 mph N/A Snow Light Snow
7:15 AM 19.6 °F 6.2 °F 14.5 °F 81% 29.81 in 4.0 mi NW 13.8 mph 20.7 mph N/A Snow Light Snow
7:34 AM 19.4 °F 6.0 °F 14.5 °F 81% 29.82 in 1.8 mi WNW 13.8 mph 20.7 mph N/A Snow Light Snow
7:55 AM 19.4 °F 7.2 °F 14.9 °F 83% 29.82 in 2.5 mi WNW 11.5 mph 19.6 mph N/A Snow Light Snow
8:15 AM 19.4 °F 7.2 °F 14.4 °F 81% 29.82 in 3.0 mi WNW 11.5 mph 20.7 mph N/A Snow Light Snow
8:35 AM 19.4 °F 7.9 °F 14.2 °F 80% 29.83 in 3.0 mi NW 10.4 mph 18.4 mph N/A Snow Light Snow
8:55 AM 19.4 °F 7.2 °F 14.4 °F 81% 29.82 in 2.5 mi NW 11.5 mph 17.3 mph N/A Snow Light Snow
9:15 AM 18.5 °F 5.5 °F 13.3 °F 80% 29.83 in 4.0 mi WNW 12.7 mph 21.9 mph N/A Snow Light Snow
9:35 AM 17.4 °F 2.9 °F 12.2 °F 80% 29.84 in 4.0 mi WNW 15.0 mph 26.5 mph N/A Snow Light Snow
9:55 AM 16.7 °F 3.8 °F 11.3 °F 79% 29.85 in 5.0 mi NW 11.5 mph 23.0 mph N/A Snow Light Snow
10:15 AM 16.7 °F 2.6 °F 11.3 °F 79% 29.85 in 5.0 mi NW 13.8 mph 19.6 mph N/A Snow Light Snow
10:35 AM 16.7 °F 1.5 °F 10.9 °F 78% 29.86 in 5.0 mi WNW 16.1 mph - N/A Snow Light Snow
10:55 AM 16.7 °F 3.8 °F 11.1 °F 79% 29.86 in 3.0 mi NW 11.5 mph 21.9 mph N/A Snow Light Snow
11:14 AM 16.7 °F 3.8 °F 11.1 °F 79% 29.86 in 3.0 mi NW 11.5 mph 19.6 mph N/A Snow Light Snow
11:35 AM 16.7 °F 6.2 °F 11.3 °F 79% 29.86 in 2.0 mi WNW 8.1 mph 17.3 mph N/A Snow Light Snow
11:55 AM 15.6 °F 1.8 °F 10.0 °F 79% 29.86 in 2.5 mi WNW 12.7 mph 18.4 mph N/A Snow Light Snow
12:14 PM 15.6 °F 4.0 °F 10.0 °F 79% 29.86 in 2.5 mi WNW 9.2 mph 18.4 mph N/A Snow Light Snow
12:35 PM 15.6 °F 1.8 °F 9.9 °F 78% 29.85 in 3.0 mi WNW 12.7 mph 19.6 mph N/A Snow Light Snow
12:55 PM 15.6 °F 2.5 °F 10.2 °F 79% 29.85 in 3.0 mi WNW 11.5 mph 19.6 mph N/A Snow Light Snow
1:14 PM 15.6 °F 1.8 °F 10.4 °F 80% 29.85 in 2.5 mi NW 12.7 mph 20.7 mph N/A Snow Light Snow
1:35 PM 15.6 °F 3.2 °F 10.4 °F 80% 29.86 in 3.0 mi WNW 10.4 mph 19.6 mph N/A Snow Light Snow
1:54 PM 16.7 °F 3.8 °F 11.1 °F 79% 29.86 in 4.0 mi NW 11.5 mph 21.9 mph N/A Snow Light Snow
2:15 PM 16.7 °F 4.5 °F 11.1 °F 79% 29.86 in 4.0 mi WNW 10.4 mph 19.6 mph N/A Snow Light Snow
2:35 PM 16.7 °F 3.2 °F 11.3 °F 79% 29.86 in 4.0 mi WNW 12.7 mph 20.7 mph N/A Snow Light Snow
2:54 PM 16.7 °F 3.8 °F 10.8 °F 77% 29.87 in 5.0 mi WNW 11.5 mph 20.7 mph N/A Snow Light Snow
3:15 PM 16.7 °F 3.2 °F 10.2 °F 76% 29.88 in 4.0 mi WNW 12.7 mph 21.9 mph N/A Snow Light Snow
3:35 PM 16.7 °F 3.2 °F 10.2 °F 76% 29.88 in 7.0 mi WNW 12.7 mph 20.7 mph N/A Snow Light Snow
3:54 PM 16.3 °F 2.7 °F 9.5 °F 74% 29.89 in 7.0 mi WNW 12.7 mph 19.6 mph N/A Snow Light Snow
4:15 PM 16.7 °F 3.8 °F 10.2 °F 76% 29.90 in 10.0 mi WNW 11.5 mph 17.3 mph N/A Snow Light Snow
4:34 PM 16.7 °F 5.3 °F 10.0 °F 75% 29.90 in 10.0 mi WNW 9.2 mph 20.7 mph N/A   Overcast
4:55 PM 15.6 °F 1.2 °F 8.4 °F 73% 29.91 in 10.0 mi WNW 13.8 mph 20.7 mph N/A   Overcast
5:15 PM 14.9 °F 0.9 °F 7.3 °F 72% 29.92 in 10.0 mi NW 12.7 mph 20.7 mph N/A   Overcast
5:34 PM 14.4 °F 1.6 °F 6.8 °F 72% 29.92 in 10.0 mi NW 10.4 mph 19.6 mph N/A   Overcast
5:55 PM 14.4 °F 3.3 °F 6.4 °F 71% 29.93 in 10.0 mi NW 8.1 mph 21.9 mph N/A Snow Light Snow
6:15 PM 14.4 °F 3.3 °F 5.9 °F 69% 29.93 in 10.0 mi NW 8.1 mph 20.7 mph N/A   Overcast
6:34 PM 14.4 °F 0.9 °F 5.9 °F 69% 29.94 in 10.0 mi NW 11.5 mph 17.3 mph N/A   Overcast
6:55 PM 14.4 °F 2.4 °F 6.1 °F 70% 29.95 in 10.0 mi WNW 9.2 mph 16.1 mph N/A   Overcast
7:15 PM 14.9 °F 0.9 °F 7.0 °F 71% 29.95 in 10.0 mi NW 12.7 mph 19.6 mph N/A   Overcast
7:34 PM 14.9 °F 4.0 °F 7.2 °F 71% 29.96 in 10.0 mi NW 8.1 mph 17.3 mph N/A   Overcast
7:55 PM 14.9 °F 3.1 °F 7.2 °F 71% 29.96 in 10.0 mi NW 9.2 mph 16.1 mph N/A   Overcast
8:15 PM 15.6 °F 2.5 °F 7.7 °F 71% 29.97 in 10.0 mi NNW 11.5 mph - N/A   Overcast
8:34 PM 15.8 °F 3.4 °F 8.1 °F 72% 29.97 in 10.0 mi NW 10.4 mph 16.1 mph N/A   Overcast
8:55 PM 16.7 °F 4.5 °F 8.6 °F 70% 29.98 in 10.0 mi NW 10.4 mph 17.3 mph N/A   Overcast
9:15 PM 16.7 °F 6.2 °F 9.1 °F 72% 29.98 in 10.0 mi NW 8.1 mph - N/A Snow Light Snow
9:34 PM 16.7 °F 5.3 °F 9.5 °F 73% 29.99 in 10.0 mi WNW 9.2 mph - N/A Snow Light Snow
9:55 PM 16.7 °F 6.2 °F 10.0 °F 75% 29.99 in 10.0 mi NW 8.1 mph - N/A Snow Light Snow
10:15 PM 16.7 °F 5.3 °F 10.2 °F 76% 30.00 in 7.0 mi NW 9.2 mph 17.3 mph N/A Snow Light Snow
10:34 PM 16.7 °F 7.2 °F 10.8 °F 77% 30.00 in 5.0 mi NW 6.9 mph - N/A Snow Light Snow
10:55 PM 16.7 °F 8.3 °F 11.3 °F 79% 30.01 in 5.0 mi NW 5.8 mph - N/A Snow Light Snow
11:15 PM 16.7 °F 9.6 °F 11.3 °F 79% 30.01 in 7.0 mi NW 4.6 mph - N/A Snow Light Snow
11:34 PM 16.7 °F 8.3 °F 11.3 °F 79% 30.01 in 10.0 mi West 5.8 mph - N/A Snow Light Snow
11:55 PM 16.7 °F 9.6 °F 11.7 °F 81% 30.02 in 7.0 mi NNW 4.6 mph - N/A Snow Light Snow